Overview Statistics Trail Chart Weather Telemetry Raw packets
 

This is the latest recevied weather packets stored in our database for station/object VK2EHQ. If no packets are shown the sender has not sent any weather packets the latest 10 day(s).

<< 2 3 4 5 6 7 8 >>
Time Temp. Humidity Pressure Rain* Wind** Luminosity Snow
1788518465 14.44° C 68% 1019.5 hPa 0 mm - - -
1788517265 14.44° C 69% 1019.2 hPa 0 mm - - -
1788516665 14.44° C 69% 1019.2 hPa 0 mm - - -
1788516065 15° C 69% 1019 hPa 0 mm - - -
1788515465 15° C 69% 1018.9 hPa 0 mm - - -
1788514865 15° C 68% 1018.8 hPa 0 mm - - -
1788514265 15.56° C 68% 1018.6 hPa 0 mm - - -
1788513665 15.56° C 68% 1018.5 hPa 0 mm - - -
1788513065 15.56° C 68% 1018.4 hPa 0 mm - - -
1788512465 15.56° C 68% 1018.2 hPa 0 mm - - -
1788511864 16.11° C 67% 1018.1 hPa 0 mm - - -
1788511264 16.11° C 67% 1018 hPa 0 mm - - -
1788510664 16.11° C 66% 1018 hPa 0 mm - - -
1788510075 16.67° C 66% 1018 hPa 0 mm - - -
1788509464 16.67° C 65% 1017.9 hPa 0 mm - - -
1788508864 17.22° C 64% 1017.9 hPa 0 mm - - -
1788508264 17.78° C 63% 1017.8 hPa 0 mm - - -
1788507664 17.78° C 63% 1017.6 hPa 0 mm - - -
1788507064 18.33° C 62% 1017.5 hPa 0 mm - - -
1788506464 18.89° C 61% 1017.4 hPa 0 mm - - -
1788505863 19.44° C 59% 1017.4 hPa 0 mm - - -
1788505263 19.44° C 58% 1017.4 hPa 0 mm - - -
1788504063 20.56° C 55% 1017.2 hPa 0 mm - - -
1788503463 21.11° C 52% 1017.1 hPa 0 mm - - -
1788502863 21.67° C 48% 1017.1 hPa 0 mm - - -

* Rain latest hour (hover to see other rain measurements)
** Current wind speed in m/s (hover to see current wind gust speed)